Auckland, New Zealand

2:12 AM NZDT on November 23, 2017 (GMT +1300)
Auckland International

Weather History for NZAA - March, 2014

Change the Weather History Date:

Monday, March 10, 2014

  Actual Average Record
Temperature  
Mean Temperature 66 °F -  
Max Temperature 77 °F 71 °F 78 °F (2007)
Min Temperature 55 °F 58 °F 51 °F (2006)
Cooling Degree Days 1    
Growing Degree Days 16 (Base 50)    
Moisture  
Dew Point 58 °F    
Average Humidity 79    
Maximum Humidity 100    
Minimum Humidity 50    
Precipitation  
Precipitation 0.00 in - - ()
Sea Level Pressure  
Sea Level Pressure 30.25 in    
Wind  
Wind Speed 4 mph ()    
Max Wind Speed 12 mph    
Max Gust Speed -    
Visibility 6.2 miles    
Events Rain    
Averages and records for this station are not official NWS values.
T = Trace of Precipitation, MM = Missing Value Source: Averaged Metar Reports

Daily Weather History Graph

Daily Weather History Graph

Search for Another Location

Airport or City:

Trip Planner

Search our weather history database for the weather conditions in past years. The results will help you decide how hot, cold, wet, or windy it might be!

Date:

Astronomy

Mar. 10, 2014 Rise Set
Actual Time 7:14 AM NZDT 7:47 PM NZDT
Civil Twilight 6:47 AM NZDT 8:13 PM NZDT
Nautical Twilight 6:17 AM NZDT 8:44 PM NZDT
Astronomical Twilight 5:45 AM NZDT 9:16 PM NZDT
Moon 3:36 PM NZDT (3/10) 1:08 AM NZDT (3/10)
Length of Visible Light 13h 25m
Length of Day
12h 33m
Waxing Gibbous, 63% of the Moon is Illuminated
Mar 10
Waxing Gibbous
Mar 17
Full
Mar 24
Last Quarter
Mar 31
New
Apr 7
First Quarter

Hourly Weather History & Observations

Time (NZDT) Temp. Dew Point Humidity Pressure Visibility Wind Dir Wind Speed Gust Speed Precip Events Conditions
12:00 AM 60.8 °F 59.0 °F 94% 30.21 in 6.2 mi SE 3.5 mph - N/A   Overcast
12:30 AM 59.0 °F 57.2 °F 94% 30.21 in 6.2 mi South 4.6 mph - N/A   Unknown
1:00 AM 60.8 °F 57.2 °F 88% 30.21 in 6.2 mi SSE 4.6 mph - N/A   Unknown
1:30 AM 59.0 °F 57.2 °F 94% 30.21 in 6.2 mi ESE 2.3 mph - N/A   Unknown
2:00 AM 59.0 °F 57.2 °F 94% 30.21 in 6.2 mi ENE 1.2 mph - N/A   Unknown
2:30 AM 57.2 °F 55.4 °F 94% 30.21 in 6.2 mi SE 1.2 mph - N/A   Unknown
3:00 AM 57.2 °F 57.2 °F 100% 30.21 in 6.2 mi ESE 3.5 mph - N/A   Unknown
3:30 AM 57.2 °F 55.4 °F 94% 30.21 in 6.2 mi ESE 1.2 mph - N/A   Unknown
4:00 AM 55.4 °F 55.4 °F 100% 30.21 in 6.2 mi Calm Calm - N/A   Unknown
4:30 AM 55.4 °F 55.4 °F 100% 30.21 in 6.2 mi ESE 1.2 mph - N/A   Unknown
5:00 AM 57.2 °F 55.4 °F 94% 30.21 in 6.2 mi ESE 4.6 mph - N/A   Partly Cloudy
5:30 AM 57.2 °F 57.2 °F 100% 30.24 in 6.2 mi ESE 2.3 mph - N/A   Mostly Cloudy
6:00 AM 57.2 °F 55.4 °F 94% 30.24 in 6.2 mi East 1.2 mph - N/A   Overcast
6:30 AM 57.2 °F 55.4 °F 94% 30.24 in 6.2 mi SE 3.5 mph - N/A   Mostly Cloudy
7:00 AM 59.0 °F 57.2 °F 94% 30.24 in 6.2 mi SE 3.5 mph - N/A   Overcast
7:30 AM 57.2 °F 55.4 °F 94% 30.24 in 6.2 mi East 1.2 mph - N/A   Partly Cloudy
8:00 AM 59.0 °F 55.4 °F 88% 30.27 in 6.2 mi SE 1.2 mph - N/A   Unknown
8:30 AM 59.0 °F 57.2 °F 94% 30.27 in 6.2 mi ESE 3.5 mph - N/A   Scattered Clouds
9:00 AM 60.8 °F 57.2 °F 88% 30.27 in 6.2 mi East 1.2 mph - N/A   Scattered Clouds
9:30 AM 66.2 °F 57.2 °F 73% 30.27 in 6.2 mi East 1.2 mph - N/A   Scattered Clouds
10:00 AM 66.2 °F 57.2 °F 73% 30.27 in 6.2 mi SSE 3.5 mph - N/A   Unknown
10:30 AM 68.0 °F 59.0 °F 73% 30.27 in 6.2 mi SE 3.5 mph - N/A   Unknown
11:00 AM 69.8 °F 57.2 °F 64% 30.27 in 6.2 mi NW 3.5 mph - N/A   Partly Cloudy
11:30 AM 71.6 °F 57.2 °F 60% 30.27 in 6.2 mi North 3.5 mph - N/A   Partly Cloudy
12:00 PM 69.8 °F 60.8 °F 73% 30.27 in 6.2 mi SSW 8.1 mph - N/A   Mostly Cloudy
12:30 PM 68.0 °F 59.0 °F 73% 30.27 in 6.2 mi SSW 5.8 mph - N/A   Scattered Clouds
1:00 PM 73.4 °F 60.8 °F 65% 30.27 in 6.2 mi SW 5.8 mph - N/A   Unknown
1:30 PM 71.6 °F 59.0 °F 64% 30.27 in 6.2 mi SW 8.1 mph - N/A   Mostly Cloudy
2:00 PM 71.6 °F 59.0 °F 64% 30.27 in 6.2 mi SW 5.8 mph - N/A   Mostly Cloudy
2:30 PM 71.6 °F 59.0 °F 64% 30.27 in 6.2 mi SW 6.9 mph - N/A   Overcast
3:00 PM 73.4 °F 57.2 °F 57% 30.24 in 6.2 mi NW 5.8 mph - N/A   Overcast
3:30 PM 77.0 °F 57.2 °F 50% 30.24 in 6.2 mi NNW 8.1 mph - N/A   Mostly Cloudy
4:00 PM 77.0 °F 57.2 °F 50% 30.24 in 6.2 mi NNW 4.6 mph - N/A   Mostly Cloudy
4:30 PM 73.4 °F 57.2 °F 57% 30.24 in 6.2 mi North 3.5 mph - N/A   Mostly Cloudy
5:00 PM 73.4 °F 60.8 °F 65% 30.24 in 6.2 mi SW 8.1 mph - N/A   Mostly Cloudy
5:30 PM 71.6 °F 60.8 °F 69% 30.24 in 6.2 mi WSW 11.5 mph - N/A   Overcast
6:00 PM 69.8 °F 59.0 °F 68% 30.24 in 6.2 mi SW 10.4 mph - N/A   Overcast
6:30 PM 68.0 °F 59.0 °F 73% 30.24 in 6.2 mi SW 8.1 mph - N/A Rain Light Rain Showers
7:00 PM 68.0 °F 59.0 °F 73% 30.27 in 6.2 mi SW 8.1 mph - N/A Rain Light Rain Showers
7:30 PM 68.0 °F 59.0 °F 73% 30.27 in 6.2 mi WSW 9.2 mph - N/A   Mostly Cloudy
8:00 PM 68.0 °F 57.2 °F 68% 30.27 in 6.2 mi WSW 9.2 mph - N/A   Overcast
8:30 PM 66.2 °F 57.2 °F 73% 30.27 in 6.2 mi WSW 8.1 mph - N/A   Mostly Cloudy
9:00 PM 64.4 °F 55.4 °F 73% 30.30 in 6.2 mi West 4.6 mph - N/A   Partly Cloudy
9:30 PM 64.4 °F 59.0 °F 83% 30.30 in 6.2 mi West 3.5 mph - N/A   Unknown
10:00 PM 62.6 °F 57.2 °F 82% 30.30 in 6.2 mi West 3.5 mph - N/A   Unknown
10:30 PM 62.6 °F 59.0 °F 88% 30.30 in 6.2 mi NNW 1.2 mph - N/A   Unknown
11:00 PM 62.6 °F 59.0 °F 88% 30.30 in 6.2 mi Calm Calm - N/A   Unknown
11:30 PM 62.6 °F 59.0 °F 88% 30.30 in 6.2 mi NNW 1.2 mph - N/A   Unknown